Weather History for Kalispell, MT

Change the Weather History Date:

Wednesday, January 16, 2013

  Actual Average Record
Temperature  
Mean Temperature 19 °F 24 °F  
Max Temperature 29 °F 31 °F 48 °F (1976)
Min Temperature 9 °F 17 °F -21 °F (1916)
Degree Days  
Heating Degree Days 46 41  
Month to date heating degree days 671 675  
Since 1 July heating degree days 3781 4189  
Cooling Degree Days 0 0  
Month to date cooling degree days 0 0  
Year to date cooling degree days 0 0  
Moisture  
Dew Point 15 °F    
Average Humidity 88    
Maximum Humidity 100    
Minimum Humidity 75    
Precipitation  
Precipitation 0.00 in 0.04 in 0.39 in (1982)
Month to date precipitation 0.53 0.78  
Year to date precipitation 0.53 0.78  
Snow  
Snow 0.00 in - - ()
Month to date snowfall 4.0  
Year to date snowfall 4.0  
Since 1 July snowfall 12.8  
Snow Depth 2.00 in    
Sea Level Pressure  
Sea Level Pressure 30.49 in    
Wind  
Wind Speed 0 mph (WSW)    
Max Wind Speed 5 mph    
Max Gust Speed 7 mph    
Visibility 5 miles    
Events Fog    
T = Trace of Precipitation, MM = Missing Value Source: NWS Daily Summary

Daily Weather History Graph

Daily Weather History Graph

Search for Another Location

Airport:

Trip Planner

Search our weather history database for the weather conditions in past years. The results will help you decide how hot, cold, wet, or windy it might be!

Date:

Astronomy

Jan. 16, 2013 Rise Set
Actual Time 8:22 AM MST 5:12 PM MST
Civil Twilight 7:46 AM MST 5:47 PM MST
Nautical Twilight 7:08 AM MST 6:26 PM MST
Astronomical Twilight 6:30 AM MST 7:03 PM MST
Moon 10:30 AM MST (1/16) 11:41 PM MST (1/16)
Length of Visible Light 10h 00m
Length of Day
8h 50m
Waxing Crescent, 29% of the Moon is Illuminated
Jan 16
Waxing Crescent
Jan 18
First Quarter
Jan 26
Full
Feb 3
Last Quarter
Feb 10
New

Hourly Weather History & Observations

Time (MST) Temp. Windchill Dew Point Humidity Pressure Visibility Wind Dir Wind Speed Gust Speed Precip Events Conditions
12:55 AM 16.0 °F - 14.0 °F 92% 30.56 in 10.0 mi Calm Calm - N/A   Mostly Cloudy
1:23 AM 15.8 °F - 14.0 °F 93% 30.41 in 10.0 mi Calm Calm - N/A   Scattered Clouds
1:55 AM 14.0 °F - 12.9 °F 95% 30.55 in 9.0 mi Calm Calm - N/A   Clear
2:55 AM 10.9 °F - 10.0 °F 96% 30.57 in 6.0 mi Calm Calm - N/A   Clear
3:08 AM 10.4 °F - 8.6 °F 92% 30.42 in 6.0 mi Calm Calm - N/A   Partly Cloudy
3:23 AM 10.4 °F - 8.6 °F 92% 30.43 in 5.0 mi Calm Calm - N/A   Mostly Cloudy
3:31 AM 10.4 °F 4.0 °F 10.4 °F 100% 30.42 in 5.0 mi SW 3.5 mph - N/A   Overcast
3:55 AM 10.0 °F - 9.0 °F 95% 30.57 in 9.0 mi Calm Calm - N/A   Mostly Cloudy
4:21 AM 12.2 °F - 10.4 °F 92% 30.42 in 1.8 mi Calm Calm - N/A   Overcast
4:39 AM 14.0 °F 8.2 °F 12.2 °F 93% 30.42 in 1.5 mi NNE 3.5 mph - N/A   Overcast
4:42 AM 12.2 °F - 10.4 °F 92% 30.42 in 3.0 mi Calm Calm - N/A   Overcast
4:55 AM 10.9 °F - 10.0 °F 96% 30.56 in 6.0 mi Calm Calm - N/A   Overcast
5:26 AM 12.2 °F - 10.4 °F 92% 30.42 in 10.0 mi Calm Calm - N/A   Overcast
5:55 AM 14.0 °F - 12.0 °F 92% 30.55 in 10.0 mi Calm Calm - N/A   Overcast
6:22 AM 14.0 °F - 12.2 °F 93% 30.40 in 10.0 mi Calm Calm - N/A   Overcast
6:55 AM 15.1 °F - 12.0 °F 88% 30.54 in 10.0 mi Calm Calm - N/A   Overcast
7:28 AM 15.8 °F - 12.2 °F 86% 30.40 in 1.5 mi Calm Calm - N/A   Overcast
7:30 AM 15.8 °F - 14.0 °F 93% 30.40 in 0.2 mi Calm Calm - N/A Fog Light Freezing Fog
7:55 AM 15.1 °F - 14.0 °F 95% 30.55 in 0.2 mi Calm Calm - N/A Fog Light Freezing Fog
8:32 AM 15.8 °F - 14.0 °F 93% 30.41 in 1.0 mi Calm Calm - N/A   Mist
8:55 AM 12.0 °F 5.9 °F 10.0 °F 92% 30.58 in 2.0 mi WSW 3.5 mph - N/A   Clear
8:57 AM 12.2 °F 6.1 °F 8.6 °F 85% 30.42 in 2.0 mi SW 3.5 mph - N/A   Partly Cloudy
9:07 AM 12.2 °F - 8.6 °F 85% 30.42 in 1.5 mi Calm Calm - N/A   Mostly Cloudy
9:39 AM 14.0 °F - 12.2 °F 93% 30.43 in 1.0 mi Calm Calm - N/A   Overcast
9:55 AM 16.0 °F - 12.9 °F 88% 30.58 in 0.5 mi Calm Calm - N/A Fog Light Freezing Fog
10:10 AM 17.6 °F 12.3 °F 15.8 °F 93% 30.44 in 0.2 mi NNE 3.5 mph - N/A Fog Light Freezing Fog
10:55 AM 19.0 °F - 18.0 °F 96% 30.59 in 0.2 mi Calm Calm - N/A Fog Light Freezing Fog
11:23 AM 21.2 °F - 19.4 °F 93% 30.44 in 0.5 mi Calm Calm - N/A Fog Light Freezing Fog
11:33 AM 19.4 °F - 19.4 °F 100% 30.44 in 1.0 mi Calm Calm - N/A   Overcast
11:55 AM 21.0 °F - 19.9 °F 96% 30.58 in 0.5 mi Calm Calm - N/A Fog Light Freezing Fog
12:12 PM 21.2 °F - 19.4 °F 93% 30.44 in 0.2 mi Calm Calm - N/A Fog Light Freezing Fog
12:27 PM 21.2 °F - 19.4 °F 93% 30.43 in 0.5 mi Calm Calm - N/A Fog Light Freezing Fog
12:55 PM 21.2 °F - 21.2 °F 100% 30.42 in 0.8 mi Calm Calm - N/A   Overcast
1:06 PM 23.0 °F 18.4 °F 21.2 °F 93% 30.42 in 1.5 mi WSW 3.5 mph - N/A   Overcast
1:10 PM 23.0 °F - 19.4 °F 86% 30.42 in 3.0 mi Calm Calm - N/A   Mostly Cloudy
1:27 PM 24.8 °F - 21.2 °F 86% 30.41 in 9.0 mi Calm Calm - N/A   Partly Cloudy
1:55 PM 24.1 °F - 21.0 °F 88% 30.55 in 10.0 mi Calm Calm - N/A   Clear
2:55 PM 28.9 °F - 21.0 °F 72% 30.54 in 10.0 mi Calm Calm - N/A   Clear
3:55 PM 28.0 °F 24.2 °F 21.0 °F 75% 30.55 in 10.0 mi WSW 3.5 mph - N/A   Clear
4:55 PM 26.1 °F 21.9 °F 21.0 °F 81% 30.56 in 10.0 mi SSW 3.5 mph - N/A   Clear
5:55 PM 24.1 °F - 19.9 °F 84% 30.56 in 10.0 mi Calm Calm - N/A   Clear
6:55 PM 21.9 °F - 19.0 °F 89% 30.56 in 10.0 mi Calm Calm - N/A   Clear
7:55 PM 19.0 °F - 17.1 °F 92% 30.56 in 8.0 mi Calm Calm - N/A   Clear
8:55 PM 17.1 °F - 15.1 °F 92% 30.58 in 8.0 mi Calm Calm - N/A   Clear
9:55 PM 15.1 °F - 14.0 °F 95% 30.59 in 5.0 mi Calm Calm - N/A   Clear
10:55 PM 10.9 °F - 10.0 °F 96% 30.60 in 10.0 mi Calm Calm - N/A   Clear
11:55 PM 10.0 °F - 7.0 °F 87% 30.59 in 5.0 mi Calm Calm - N/A   Clear